Content
SEND FEEDBACK

Daily
Averages
Monthly
Summary
United States of America

ANN ARBOR, MICHIGAN


Home > North America > United States > Michigan
Elevation: 759 feet     Latitude: 42 17N     Longitude: 083 43W

WEATHER
 
SELECT A DAY
Number of Records: 204,374;   Date Range: 1/1/95 - 9/18/14
 
SHARE

PRINT THIS DATA

[ ← Previous Day ]
WEATHER ALMANAC - SEPTEMBER 24, 2013
[ Next Day → ]
[ °C ]   °F
Weather ElementAverageHighLow
Temperature46.1 °F66 °F (3:53 pm)37 °F (1:53 am)
Dewpoint42.2 °F51.1 °F (7:53 pm)35.6 °F (2:38 am)
Humidity88.4 %100 % (2:23 am)50 % (3:53 pm)
Barometer30.10 in30.17 in (7:53 am)30.00 in (10:26 pm)
Wind Speed1.4 mph8.1 mph (2:53 pm)
Weather ElementAverage
Visibility4.6 mi
Wind DirectionNNE (27.2 °)

Weather ElementTotal
Precipitation---
Heating Degree Days13.5 (Base 65)
Growing Degree Days1.5 (Base 50)
Averaged from 54 records on September 24, 2013
WEATHER CONDITIONS BREAKOUT
WIND DIRECTION BREAKOUT
WEATHER BY HOUR - SEPTEMBER 24, 2013
[ °C ]   °F
Local TimeTemperatureDewpointHumidityBarometerVisibilityWind DirectionWind SpeedGust SpeedPrecipitationEventsConditions
12:53 AM42.1 °F39.9 °F92 %30.15 in10.0 miCalmClear
1:53 AM37.0 °F36.0 °F96 %30.15 in8.0 miCalmClear
2:23 AM37.4 °F37.4 °F100 %30.14 in1.2 miWest (280°)3.5 mphClear
2:33 AM37.4 °F37.4 °F100 %30.14 in2.0 miCalmClear
2:38 AM37.4 °F35.6 °F93 %30.14 in1.0 miCalmClear
2:45 AM37.4 °F35.6 °F93 %30.14 in0.2 miCalmFogFog
2:53 AM37.9 °F37.0 °F97 %30.15 in0.2 miCalmFogFog
3:26 AM39.2 °F39.2 °F100 %30.14 in1.5 miCalmScattered Clouds
3:28 AM37.4 °F37.4 °F100 %30.13 in4.0 miCalmMostly Cloudy
3:53 AM39.0 °F39.0 °F100 %30.14 in6.0 miCalmOvercast
4:53 AM39.0 °F37.9 °F96 %30.14 in10.0 miCalmMostly Cloudy
5:44 AM39.2 °F39.2 °F100 %30.13 in1.8 miCalmScattered Clouds
5:48 AM37.4 °F37.4 °F100 %30.13 in3.0 miCalmPartly Cloudy
5:53 AM37.9 °F37.0 °F97 %30.14 in1.2 miCalmPartly Cloudy
6:00 AM39.2 °F39.2 °F100 %30.13 in0.5 miCalmFogFog
6:06 AM37.4 °F37.4 °F100 %30.13 in1.5 miCalmClear
6:21 AM37.4 °F37.4 °F100 %30.14 in0.8 miCalmClear
6:39 AM37.4 °F35.6 °F93 %30.14 in1.0 miCalmPartly Cloudy
6:51 AM37.4 °F35.6 °F93 %30.14 in0.5 miCalmFogFog
6:53 AM37.0 °F36.0 °F96 %30.16 in0.5 miCalmFogFog
7:34 AM39.2 °F37.4 °F93 %30.15 in0.2 miCalmFogFog
7:44 AM39.2 °F37.4 °F93 %30.15 in2.0 miCalmPartly Cloudy
7:53 AM37.9 °F37.0 °F97 %30.17 in2.5 miCalmPartly Cloudy
8:01 AM37.4 °F37.4 °F100 %30.15 in1.0 miCalmClear
8:08 AM39.2 °F39.2 °F100 %30.15 in10.0 miCalmClear
8:53 AM46.9 °F46.9 °F100 %30.16 in10.0 miCalmMostly Cloudy
9:15 AM48.2 °F46.4 °F93 %30.14 in10.0 miNE (50°)3.5 mphScattered Clouds
9:53 AM55.9 °F48.9 °F77 %30.15 in10.0 miEast (80°)3.5 mphClear
10:30 AM59.0 °F48.2 °F67 %30.14 in10.0 miCalmMostly Cloudy
10:53 AM60.1 °F48.0 °F64 %30.14 in10.0 miEast (80°)5.8 mphMostly Cloudy
11:00 AM59.0 °F48.2 °F67 %30.13 in10.0 miSE (140°)5.8 mphScattered Clouds
11:53 AM62.1 °F48.9 °F62 %30.14 in10.0 miSE (130°)6.9 mphClear
12:53 PM61.0 °F48.0 °F62 %30.12 in10.0 miVariable3.5 mphMostly Cloudy
1:53 PM64.0 °F48.9 °F58 %30.09 in10.0 miNNE (30°)3.5 mphMostly Cloudy
2:53 PM64.9 °F48.9 °F56 %30.06 in10.0 miESE (110°)8.1 mphScattered Clouds
3:53 PM66.0 °F46.9 °F50 %30.04 in10.0 miEast (100°)8.1 mphClear
4:53 PM64.9 °F48.0 °F54 %30.03 in10.0 miEast (100°)8.1 mphClear
5:53 PM64.9 °F48.0 °F54 %30.03 in10.0 miEast (100°)5.8 mphClear
6:53 PM62.1 °F48.9 °F62 %30.01 in10.0 miESE (120°)4.6 mphClear
7:53 PM57.0 °F51.1 °F81 %30.01 in10.0 miSSE (150°)3.5 mphClear
8:53 PM52.0 °F48.9 °F89 %30.02 in10.0 miCalmClear
9:41 PM46.4 °F46.4 °F100 %30.01 in1.8 miCalmClear
9:46 PM48.2 °F46.4 °F93 %30.01 in0.8 miCalmClear
9:53 PM46.0 °F45.0 °F96 %30.02 in0.2 miCalmFogFog
10:26 PM46.4 °F44.6 °F93 %30.00 in1.5 miCalmClear
10:28 PM46.4 °F44.6 °F93 %30.00 in3.0 miCalmClear
10:51 PM44.6 °F44.6 °F100 %30.01 in1.0 miCalmClear
10:53 PM44.1 °F43.0 °F96 %30.02 in0.8 miCalmClear
11:06 PM42.8 °F42.8 °F100 %30.01 in1.5 miCalmClear
11:12 PM41.0 °F39.2 °F93 %30.02 in3.0 miCalmClear
11:35 PM42.8 °F42.8 °F100 %30.02 in1.2 miCalmClear
11:43 PM46.4 °F44.6 °F93 %30.02 in0.2 miCalmFogFog
11:53 PM45.0 °F44.1 °F97 %30.02 in0.5 miCalmFogFog
11:59 PM44.6 °F42.8 °F93 %30.01 in1.5 miCalmClear
Hourly data recorded from KARB, located miles away from Ann Arbor, Michigan







STORIES FROM OUR PARTNERS